Preview of NWS' New Version of Forecast
This preview is not operational and should not be used for support decisions.

Regional Weather Roundup (RWR)

Issued by Pendleton, OR (PDT)

                            
000
ASUS46 KPDT 170525
RWRPDT
PENDLETON REGIONAL WEATHER ROUNDUP
NATIONAL WEATHER SERVICE PENDLETON OREGON
900 PM PST SUN DEC 16 2018

NOTE: FAIR INDICATES FEW OR NO CLOUDS BELOW 12,000 FEET WITH NO
SIGNIFICANT WEATHER AND/OR OBSTRUCTIONS TO VISIBILITY.

# INDICATES UNOFFICIAL STATION AND DATA

WAZ520-170610-
EAST SLOPES OF WASHINGTON CASCADES

CITY            SKY/WX      TMP DP  RH  WIND    PRES   REMARKS
#BULLFROG       N/A         34  34  100 CALM    N/A                          
#EASTON DOT     N/A         N/A N/A N/A CALM    N/A                          
#ELK HTS DOT    N/A         33  33  100 SW2     N/A                          
#GLENWOOD       N/A         38  37  96  CALM    29.93R                       
#NELSON 3SW     N/A         31  29  92  CALM    30.10R                       
#NILE           N/A         33  32  96  CALM    29.15S                       
#TROUT LAKE 1NE N/A         37  36  96  CALM    29.93R                       
#TROUT LAKE 1E  N/A         35  34  96  CALM    29.88S                       
$$

WAZ521-170610-
SIMCOE HIGHLANDS

CITY            SKY/WX      TMP DP  RH  WIND    PRES   REMARKS
#BICKLETON HS   N/A         40  37  89  SW12    29.52R WCI 33                
#SATUS PASS DOT N/A         37  36  96  N3      N/A                          
#CENTERVILLE 1SWN/A         34  31  89  CALM    29.91R                       
#GOODNOE HILLS  N/A         40  38  92  W9      29.80R                       
#LYLE 6NE       N/A         38  37  96  CALM    29.93R                       
#PITT 4SE       N/A         36  35  96  CALM    29.96R                       
$$

WAZ026-170610-
KITTITAS VALLEY

CITY            SKY/WX      TMP DP  RH  WIND    PRES   REMARKS
ELLENSBURG AP   CLOUDY      36  34  92  E3      29.84S FOG                   
#ELLENSBURG CWU N/A         34  33  96  CALM    29.85R                       
#ELLENSBURG 3NE N/A         33  32  96  CALM    27.94R                       
#ELLENSBURG 1E  N/A         32  31  96  CALM    29.94R                       
#KITTITAS 3S    N/A         32  31  96  CALM    29.90R                       
#MANASTASH RDG  N/A         35  34  96  S8      N/A                          
#ROCKY CYN DOT  N/A         35  34  96  W3      N/A                          
#RYEGRASS DOT   N/A         36  34  92  CALM    N/A                          
#THORP 6N       N/A         35  34  96  CALM    29.98F                       
$$

WAZ027-170610-
YAKIMA VALLEY

CITY            SKY/WX      TMP DP  RH  WIND    PRES   REMARKS
YAKIMA AIRPORT  CLOUDY      33  31  92  CALM    29.89R FOG                   
YAKIMA-VAGABOND MOCLDY      36  34  92  CALM    29.86R                       
#DONALD 2NE     N/A         36  31  82  NW3     28.73R                       
#GRANDVIEW      N/A         37  36  96  CALM    29.92R                       
#MABTON         N/A         38  37  96  E1      29.88S                       
#NACHES 2SW     N/A         36  35  96  CALM    29.81S                       
#OUTLOOK DOT    N/A         38  38  100 NE1     29.86S                       
#PARKER DOT     N/A         37  36  96  CALM    29.88R                       
#TERRACE HTS    N/A         35  34  96  CALM    29.88R                       
#TOPPENISH      N/A         38  37  96  CALM    29.84R                       
#I82 S UMTANUM RN/A         35  33  92  CALM    N/A                          
#UNION GAP DOT  N/A         37  36  96  CALM    29.92R                       
#W YAKIMA       N/A         34  33  96  CALM    29.91R                       
#ZILLAH DOT     N/A         37  N/A N/A E3      N/A                          
$$

WAZ028-170610-
LOWER COLUMBIA BASIN...WASHINGTON

CITY            SKY/WX      TMP DP  RH  WIND    PRES   REMARKS
PASCO           CLOUDY      40  38  92  CALM    29.93R                       
PROSSER AWOS    N/A         39  39  100 N6      29.92F                       
RICHLAND AWOS   CLOUDY      40  40  100 E7      29.92R                       
#BASIN CITY 5SW N/A         38  37  96  CALM    29.90R                       
#BENTON CITY    N/A         38  37  96  CALM    29.83R                       
#CONNELL 5N     N/A         37  36  96  CALM    29.92R                       
#CONNELL 5NW    N/A         38  16  40  CALM    29.88R                       
#ELTOPIA 6NW    N/A         38  37  96  CALM    28.87R                       
#KAHLOTUS       N/A         40  38  92  CALM    29.90R                       
#KENNEWICK 3S   N/A         39  38  96  CALM    29.94R                       
#PROSSER DOT    N/A         39  39  100 CALM    29.90S                       
#SAGEMOOR 2W    N/A         38  36  92  S2      29.79R                       
#TOUCHET 2S     N/A         40  38  92  N3      29.90R                       
$$

WAZ029-170610-
FOOTHILLS OF THE BLUES...WASHINGTON

CITY            SKY/WX      TMP DP  RH  WIND    PRES   REMARKS
WALLA WALLA AP  CLOUDY      45  37  73  W14     29.88R WCI 39                
#CLYDE 6NW      N/A         40  38  92  CALM    29.89R                       
#DELANEY DOT    N/A         48  40  74  S1      29.87R                       
#LOWDEN 2SE     N/A         40  38  92  W5      29.87R                       
#PLEASANT VIEW 1N/A         41  38  89  SW8     29.94R                       
#PRESCOTT       N/A         43  39  86  CALM    29.89R                       
#WHITMAN COLLEGEN/A         44  38  79  W5      29.95R                       
#WAITSBURG 6SSE N/A         49  36  61  W6      29.70R                       
#WALLA WALLA 5E N/A         48  38  68  W8      N/A                          
#WHITMAN MISSIONN/A         42  39  89  W1      29.93R                       
$$

WAZ030-170610-
BLUE MOUNTAINS...WASHINGTON
 
CITY            SKY/WX      TMP DP  RH  WIND    PRES   REMARKS
#DIXIE 5SE      N/A         51  33  50  SE23G38 29.78R                       
$$

ORZ009-041-WAZ024-170610-
COLUMBIA RIVER GORGE

CITY            SKY/WX      TMP DP  RH  WIND    PRES   REMARKS
HOOD RIVER AP   CLOUDY      39  37  92  SE5     29.93R FOG                   
THE DALLES AP   CLOUDY      37  36  96  NE3     29.92R FOG                   
#CELILO DOT     N/A         41  37  86  CALM    N/A                          
#LYLE           N/A         42  40  93  CALM    29.94R                       
#MARYHILL       N/A         38  38  100 N2      29.76                        
#MURDOCK        N/A         41  40  96  NW3     29.89R                       
#RUFUS DOT      N/A         43  40  89  W2      N/A                          
#SMITHVILLE     N/A         41  39  93  N3      29.90R                       

$$

ORZ510-170610-
NORTH CENTRAL OREGON

CITY            SKY/WX      TMP DP  RH  WIND    PRES   REMARKS
#ANTELOPE       N/A         43  39  86  CALM    29.77R                       
#COW CYN RST AREN/A         42  39  89  E1      N/A                          
#DUFUR          N/A         35  34  96  CALM    29.89R                       
#DUFUR 9E       N/A         45  40  82  SW15    29.98R WCI 38                
#GRASS VALLEY 1SN/A         35  33  92  SE2     30.03R                       
#KENT DOT       N/A         40  34  79  S7      N/A                          
#SHANIKO 5WSW   N/A         42  38  86  S16     N/A    WCI 34                
#WAPANITIA AIRPON/A         35  33  92  CALM    29.95R                       
#WASCO DOT      N/A         34  34  100 SE1     N/A                          
#WASCO 5NE      N/A         37  35  92  CALM    29.91R                       
$$

ORZ511-170610-
CENTRAL OREGON

CITY            SKY/WX      TMP DP  RH  WIND    PRES   REMARKS
BEND AIRPORT    CLOUDY      43  37  79  S6      29.91R                       
MADRAS AIRPORT  PTCLDY      41  36  82  SE3     29.91R                       
PRINEVILLE AP   MOCLDY      45  37  73  S8      29.91R                       
REDMOND AIRPORT MOCLDY      46  37  71  S12     29.89R WCI 40                
#ASHWOOD SCHOOL N/A         46  40  79  CALM    29.85R                       
#BEND 1SW       N/A         39  37  92  CALM    N/A                          
#BEND-AWBREY    N/A         41  38  89  S3      29.89R                       
#BEND-KIM LN    N/A         43  38  82  SE7     29.82R                       
#CULVER         N/A         42  36  79  CALM    29.58R                       
#CULVER 8W      N/A         40  36  85  CALM    29.91R                       
#LAKE BILLY CHINN/A         43  N/A N/A CALM    29.99R                       
#POWELL BUTTE   N/A         46  36  68  S13     29.86R WCI 40                
#PRINEVILLE     N/A         48  38  68  CALM    29.96R                       
#PRINEVILLE 3N  N/A         44  37  76  SE2     29.86R                       
#WARM SPRINGS   N/A         41  38  89  CALM    N/A                          

$$


ORZ509-170610-
EAST SLOPES OF OREGON CASCADES

CITY            SKY/WX      TMP DP  RH  WIND    PRES   REMARKS
SISTERS AWOS    N/A         37  34  89  CALM    29.86R                       
#BLUE BOX PASS  N/A         38  N/A N/A CALM    N/A                          
#CAMP SHERMAN   N/A         33  31  92  CALM    30.02R                       
#LA PINE 4NW    N/A         37  34  89  CALM    29.95R                       
#LAVA BUTTE DOT N/A         38  35  89  CALM    N/A                          
#SISTERS ODOT   N/A         36  33  89  CALM    N/A                          
#SISTERS 3N     N/A         34  30  85  N3      29.93R                       
#TUMALO 3W      N/A         41  37  86  SE6     29.75R                       
#WANOGA BUTTE D N/A         32  31  96  W8      N/A                          

$$

ORZ044-170610-
LOWER COLUMBIA BASIN...OREGON

CITY            SKY/WX      TMP DP  RH  WIND    PRES   REMARKS
HERMISTON       CLOUDY      44  39  82  W3      29.91R                       
#BOARDMAN SCHOOLN/A         42  40  93  CALM    29.91R                       
#BOARDMAN 8SW   N/A         44  41  89  CALM    29.92R                       
#ECHO 8SW       N/A         43  43  100 CALM    29.92R                       
#I-84 EX 198 DOTN/A         43  39  86  CALM    N/A                          
#IONE SCHOOL    N/A         41  27  57  CALM    29.93R                       
#UMATILLA       N/A         42  37  82  CALM    29.87R                       
$$

ORZ507-170610-
NORTHERN FOOTHILLS OF THE BLUES

CITY            SKY/WX      TMP DP  RH  WIND    PRES   REMARKS
PENDLETON AIRPT CLOUDY      41  38  89  N5      29.88R                       
#ADAMS 3WNW     N/A         44  38  79  CALM    29.88R                       
#ATHENA         N/A         52  35  52  S9      29.91R                       
#CAYUSE         N/A         52  35  52  SE17G26 29.87R                       
#HELIX SCHOOL   N/A         41  38  89  CALM    29.91R                       
#HELIX 3N       N/A         43  38  82  N7      29.91R                       
#HOLDMAN 6E     N/A         40  38  92  CALM    29.72R                       
#M-FREEWATER 5SEN/A         55  36  49  E15G29  29.88R                       
#PENDLETON DNTN N/A         45  30  55  W2      29.90R                       
#PDT AQUATIC CTRN/A         43  34  70  N2      29.88R                       
#PDT SUNRIDGE   N/A         44  39  82  CALM    29.92R                       
#PENDLETON 6SE  N/A         50  37  61  N1      29.84R                       
#PENDLETON 7NW  N/A         42  37  82  CALM    32.18S                       
#TUTUILLA       N/A         47  35  63  CALM    29.94R                       
#UMAPINE 2E     N/A         42  38  86  CALM    29.88R                       

$$

ORZ508-170610-
SOUTHERN FOOTHILLS OF THE BLUES

CITY            SKY/WX      TMP DP  RH  WIND    PRES   REMARKS
#AJAX           N/A         43  35  73  CALM    30.04R                       
#HEPPNER EOC    N/A         41  36  82  E7      29.84R                       
#HEPPNER 4NE    N/A         43  37  79  CALM    29.88R                       
#LEXINGTON 2SE  N/A         44  39  82  SE6     29.85R                       
#OLEX 4N        N/A         43  40  89  SW3     29.87R                       
#RUGGS 5NE      N/A         42  38  86  W3      30.04R                       
#RUGGS 2SW      N/A         47  33  58  SE1     29.89R                       

$$

ORZ502-503-170610-
BLUE MOUNTAINS

CITY            SKY/WX      TMP DP  RH  WIND    PRES   REMARKS
MEACHAM         MOCLDY      40  29  64  CALM    29.92R                       
#BATTLE MTN DOT N/A         40  27  59  S8      N/A                          
#GRANITE        N/A         33  30  89  S5      29.59F                       
#HARDMAN 10S    N/A         43  33  67  S9      30.05R                       
#HEPPNER 15SE   N/A         45  32  60  S8      25.41R                       
#LADD CYN SMT   N/A         38  30  73  SE17G29 N/A    WCI 29                
#LADD CREEK ODOTN/A         41  32  70  SW9     N/A                          
#N POWDER DOT   N/A         39  31  73  SE23    N/A    WCI 28                
#SUMMERVILLE 5NWN/A         43  33  67  S3      26.65R                       
#TOLLGATE       N/A         35  30  82  W7      29.97R                       
#TROY SCHOOL    N/A         36  34  92  CALM    29.89S                       
#UKIAH          N/A         45  35  68  E7      29.85R                       
#WESTON 4E      N/A         44  33  65  SE14    29.87R WCI 37                
$$

ORZ505-170610-
JOHN DAY BASIN

CITY            SKY/WX      TMP DP  RH  WIND    PRES   REMARKS
JOHN DAY        LGT DRIZZLE 45  37  73  SE16G32 29.96S WCI 38                
#DAYVILLE SCHOOLN/A         50  33  52  E7      29.89R                       
#MITCHELL 8NW   N/A         46  35  65  CALM    29.90R                       
#MONUMENT HS    N/A         54  33  45  SE13    29.86R                       
$$

ORZ506-170610-
OCHOCO AND JOHN DAY HIGHLANDS

CITY            SKY/WX      TMP DP  RH  WIND    PRES   REMARKS
#HORSE RIDGE DO N/A         39  34  82  S8      N/A                          
#IZEE 6NW       N/A         42  34  73  S6      N/A                          
#PAULINA ODOT   N/A         40  34  79  SW2     N/A                          
#PRAIRIE CITY   N/A         44  33  65  E7      30.12R                       
#SENECA 9NW     N/A         35  32  89  CALM    30.00S                       
$$

ORZ049-170610-
GRANDE RONDE VALLEY

CITY            SKY/WX      TMP DP  RH  WIND    PRES   REMARKS
LA GRANDE       CLOUDY      45  30  55  E26G32  29.97F WCI 36                
#COVE SCHOOL    N/A         50  34  54  E10G24  29.96R                       
#COVE 6NW       N/A         47  33  58  SE9     29.96F                       
#ELGIN 3N       N/A         46  28  49  S14     30.14S WCI 40                
#ELGIN 1E       N/A         48  33  56  SW6     N/A                          
#IMBLER SCHOOL  N/A         46  33  60  S21G36  29.91S WCI 38                
#ISLAND CITY 4N N/A         46  45  96  CALM    29.91R                       
#LADD CYN DOT   N/A         43  33  67  S22G38  N/A    WCI 34                
#UNION 1S       N/A         48  32  54  S20G35  30.00F WCI 41                
$$

ORZ050-170610-
WALLOWA COUNTY

CITY            SKY/WX      TMP DP  RH  WIND    PRES   REMARKS
#ENTERPRISE HS  N/A         46  34  63  S7      29.91S                       
#IMNAHA SCHOOL  N/A         53  37  54  N15G25  29.96R                       
#IMNAHA 10S     N/A         49  34  56  SW15G28 29.97R WCI 43                
#JOSEPH         N/A         46  28  49  E17     30.14R WCI 39                
#JOSEPH 3N      N/A         43  32  65  S12     29.97R WCI 37                
#JOSEPH 3W      N/A         40  32  73  CALM    29.76S                       
#LOSTINE        N/A         34  32  92  CALM    29.84S                       
#LOSTINE 3SE    N/A         34  32  92  CALM    30.00R                       
#MT HOWARD 8000 N/A         28  25  88  S23G45  29.88S WCI 14                
#PROMISE 1S     N/A         37  35  92  SE5     30.08F                       



$$